Location: A�t Irmer
(31.1054°N, 8.9165°W)
Time: 16:34:57
(UTC+00:00)

Daily predictions for brighter satellites

Satellite Brightness Start Highest point End
(mag) Time Altitude Azimuth Time Altitude Azimuth Time Altitude Azimuth
Cosmos 1943 3.9 18:17:34 10° NNW 18:23:08 63° WSW 18:28:39 10° S
Cosmos 1486 Rocket 4.4 18:18:26 10° N 18:23:30 44° ENE 18:28:34 10° SE
Cosmos 1844 Rocket 2.7 18:19:15 10° SSW 18:24:54 80° ESE 18:30:35 10° NNE
Cosmos 1606 Rocket 3.7 18:22:15 10° SSE 18:26:31 50° E 18:30:46 10° NNE
Cosmos 1470 3.3 18:24:35 10° SSW 18:28:31 66° W 18:32:29 10° N
Cosmos 2278 Rocket 3.4 18:34:37 10° SE 18:38:38 20° E 18:42:39 10° NE
SWAS 4.4 18:36:51 10° SSW 18:41:04 67° ESE 18:45:18 10° NNE
Cosmos 1844 3.7 18:35:34 10° SSW 18:41:13 86° ESE 18:46:59 10° NNE
Cosmos 1758 Rocket 3.6 18:37:30 10° N 18:41:53 58° E 18:46:17 10° SSE
YAOGAN 6 3.1 18:38:53 10° SE 18:42:19 37° ENE 18:45:44 10° N
Cosmos 1174 4.3 18:39:26 10° NW 18:42:26 45° WSW 18:45:16 10° S
Cosmos 968 Rocket 4.0 18:38:52 10° N 18:43:44 37° ENE 18:48:32 10° SE
ASTEX 1 3.4 18:39:18 10° NNE 18:44:11 60° E 18:49:05 10° S
Meteor 2-12 Rocket 4.5 18:39:49 10° N 18:45:55 61° E 18:51:58 10° SSE
Cosmos 1992 Rocket 4.4 18:43:12 10° SSW 18:48:23 68° WNW 18:53:35 10° N
YAOGAN 1 2.8 18:49:42 10° SE 18:53:48 44° ENE 18:57:55 10° N
Cosmos 1503 Rocket 4.3 18:49:01 10° N 18:53:57 44° ENE 18:58:53 10° SE
SKYMED 2 4.2 18:50:52 10° N 18:55:09 59° WNW 18:59:24 10° SSW
OAO 2 Rocket 3.8 18:49:58 10° W 18:55:11 59° N 18:59:26 16° ENE
ATLAS 5 CENTAUR R/B 4.1 18:54:49 10° W 18:57:51 19° NW 19:01:03 10° N
CZ-4C R/B 3.1 18:54:08 10° NNW 19:01:42 63° ENE 19:10:00 10° SE
USA 234 3.8 18:57:30 11° ENE 19:03:08 36° SE 19:09:03 10° S
Abrixas rocket 2.2 19:00:18 10° SSW 19:03:15 49° SE 19:04:35 27° ENE
CZ-2D R/B 4.0 19:02:41 10° SE 19:06:03 30° ENE 19:09:27 10° NNE
Okean-O 4.5 19:02:08 10° SSW 19:06:09 34° W 19:10:12 10° NNW
SL-4 R/B 3.8 19:05:04 10° N 19:06:55 13° NNE 19:07:19 13° NE
Hubble Space Telescope 3.6 19:06:11 10° SW 19:07:08 11° SSW 19:08:05 10° SSW
Cosmos 1726 Rocket 4.2 19:04:48 10° SSW 19:09:10 58° W 19:13:30 10° N
CSL-04 Rocket 3.6 19:04:38 10° SSE 19:10:09 73° ENE 19:15:41 10° N
NOSS 3-2 (A) 4.3 19:06:26 10° SSE 19:10:35 22° ESE 19:11:13 21° E
OAO 3 Rocket 3.4 19:10:29 10° W 19:15:24 67° NNW 19:18:13 25° ENE
Cosmos 2058 Rocket 3.1 19:12:10 10° S 19:16:31 79° W 19:20:53 10° N
Cosmos 1271 Rocket 2.8 19:13:22 10° N 19:17:21 81° W 19:21:20 10° S
EO 1 Delta rocket 3.7 19:13:48 10° SSE 19:18:38 65° E 19:23:12 10° N
Meteosat 1 Rocket2 4.0 19:18:08 10° SW 19:21:11 25° SSE 19:21:53 24° SE
BREEZE-M DEB (TANK) 4.5 19:06:31 10° SW 19:23:50 59° NW 19:27:39 14° NNE
Atlas Centaur 2 3.3 19:21:00 10° W 19:26:22 33° SSW 19:29:42 16° SSE
IRS-1A Rocket 4.5 19:26:10 20° SE 19:29:39 44° ENE 19:34:49 10° N
Cosmos 1727 Rocket 4.1 19:23:46 10° SSE 19:29:40 48° E 19:35:33 10° NNE
Cosmos 1703 3.3 19:26:04 10° N 19:29:55 54° E 19:30:39 45° ESE
Cosmos 1605 Rocket 4.0 19:26:40 10° N 19:32:43 55° E 19:38:40 10° SSE
Cosmos 1726 3.2 19:30:07 10° SSW 19:33:38 44° W 19:37:09 10° N
Cosmos 1939 Rocket 2.6 19:35:01 33° SSE 19:36:41 72° ENE 19:40:38 10° N
COSMOS 2406 3.5 19:39:16 10° N 19:44:47 45° ENE 19:45:01 45° ENE
CZ-3 Stage 3 1.5 19:42:25 10° W 19:46:00 50° WSW 19:46:00 50° WSW
ASTRO E2 3.8 19:45:26 10° W 19:49:04 33° SSW 19:49:24 33° S
Cosmos 1934 Rocket 4.4 19:42:57 10° NNW 19:49:13 66° W 19:55:29 10° S
Meteor 1-11 4.1 19:46:26 10° N 19:52:13 82° E 19:58:00 10° S
CZ-4 R/B 4.0 19:50:43 10° SSW 19:53:51 21° W 19:57:03 10° NW
Lacrosse 5 rocket 2.8 19:51:28 10° NNW 19:53:24 25° N 19:53:24 25° N
IUS-18 SRM-1 3.4 19:55:13 10° WSW 19:59:27 35° SW 19:59:27 35° SW
Cosmos 1242 Rocket 4.3 20:02:42 10° NNW 20:06:02 33° W 20:07:14 26° SW
BREEZE-M DEB (TANK) 3.9 20:00:55 10° NW 20:05:56 43° WSW 20:05:56 43° WSW
Ariane Rocket 3.8 20:13:32 17° S 20:17:16 50° W 20:22:13 10° NNW
Cosmos 2278 Rocket 3.3 20:16:59 10° SW 20:22:18 42° WNW 20:27:41 10° N
ADEOS Rocket 3.3 20:15:07 10° NNE 20:22:50 81° ESE 20:29:56 10° S
Cosmos 1153 Rocket 4.3 20:17:03 10° N 20:23:05 85° WNW 20:23:05 85° WNW
USA 238 DEB 4.0 20:26:25 10° SW 20:32:58 61° WNW 20:34:59 44° N
USA 238 4.0 20:26:31 10° SW 20:33:04 62° WNW 20:35:00 45° N
H-2A R/B 4.4 20:40:17 14° N 20:40:17 14° N 20:40:56 10° N
CZ-3B R/B 4.3 20:15:30 10° W 20:38:14 74° SSW 20:43:58 52° SE
USA 234 3.9 20:44:54 45° N 20:46:08 50° NW 20:52:22 10° WSW
H-2A R/B 4.2 21:06:04 10° WSW 21:41:01 69° W 21:41:01 69° W
